GW1058 Weather Reports


time (UTC)temp
C
wind
direction
speed
KPH
gust
KPH
rain 1hr
cm
rain 24hr
cm
rain mn
cm
humidity
%
barometer
mb
20260906150502 22 158 3.2 14.5 0.00 0.00 0.00 83 1021.6
20260906150001 22 173 12.9 16.1 0.00 0.00 0.00 82 1021.7
20260906145456 22 162 16.1 17.7 0.00 0.00 0.00 82 1021.7
20260906144955 21 164 11.3 14.5 0.00 0.00 0.00 83 1021.5
20260906144450 21 178 11.3 17.7 0.00 0.00 0.00 83 1021.5
20260906143946 21 160 12.9 14.5 0.00 0.00 0.00 83 1021.6
20260906143441 21 120 8.0 12.9 0.00 0.00 0.00 84 1021.7
20260906142937 21 109 4.8 11.3 0.00 0.00 0.00 85 1021.5
20260906142431 21 151 3.2 8.0 0.00 0.00 0.00 85 1021.7
20260906141926 20 129 6.4 12.9 0.00 0.00 0.00 86 1021.5
20260906141426 20 167 8.0 12.9 0.00 0.00 0.00 88 1021.5
20260906140920 20 203 4.8 8.0 0.00 0.00 0.00 88 1021.3
20260906140414 20 211 1.6 8.0 0.00 0.00 0.00 91 1021.5
20260906135912 20 167 9.7 11.3 0.00 0.00 0.00 93 1021.4
20260906135406 20 181 6.4 11.3 0.00 0.00 0.00 93 1021.7
20260906134902 20 183 3.2 11.3 0.00 0.00 0.00 94 1021.6
20260906134357 20 151 8.0 9.7 0.00 0.00 0.00 94 1021.5
20260906133852 20 181 11.3 14.5 0.00 0.00 0.00 94 1021.6
20260906133348 19 170 6.4 14.5 0.00 0.00 0.00 95 1021.6
20260906132843 19 101 11.3 12.9 0.00 0.00 0.00 94 1021.5
20260906132338 20 151 12.9 14.5 0.00 0.00 0.00 94 1021.5
20260906131834 20 181 4.8 11.3 0.00 0.00 0.00 94 1021.3
20260906131329 20 158 4.8 9.7 0.00 0.00 0.00 95 1021.0
20260906130825 20 85 8.0 9.7 0.00 0.00 0.00 96 1020.9
20260906130324 19 165 4.8 8.0 0.00 0.00 0.00 97 1021.0
20260906125823 19 181 1.6 3.2 0.00 0.00 0.00 97 1020.7
20260906125321 18 177 1.6 3.2 0.00 0.00 0.00 98 1021.1
20260906124816 18 165 0.0 3.2 0.00 0.00 0.00 98 1020.9
20260906124312 18 77 1.6 8.0 0.00 0.00 0.00 98 1021.0
20260906123811 18 123 1.6 8.0 0.00 0.00 0.00 98 1021.2
20260906123306 18 142 1.6 8.0 0.00 0.00 0.00 98 1021.0
20260906122806 18 182 4.8 4.8 0.00 0.00 0.00 98 1020.9
20260906122301 18 121 1.6 3.2 0.00 0.00 0.00 98 1020.7
20260906121757 18 172 1.6 3.2 0.00 0.00 0.00 98 1020.7
20260906121253 18 161 3.2 4.8 0.00 0.00 0.00 98 1020.7
20260906120749 18 169 8.0 9.7 0.00 0.00 0.00 98 1020.7
20260906120246 18 146 3.2 3.2 0.00 0.00 0.00 98 1020.7
20260906115741 18 134 4.8 4.8 0.00 0.00 0.00 98 1020.6
20260906115236 18 140 4.8 4.8 0.00 0.00 0.00 98 1020.8
20260906114735 18 112 1.6 4.8 0.00 0.00 0.00 98 1020.4
20260906114231 18 148 1.6 3.2 0.00 0.00 0.00 98 1020.6
20260906113726 18 161 3.2 3.2 0.00 0.00 0.00 98 1020.5
20260906113225 18 90 3.2 8.0 0.00 0.00 0.00 98 1020.7
20260906112724 18 87 4.8 8.0 0.00 0.00 0.00 98 1020.6
20260906112222 18 49 3.2 3.2 0.00 0.00 0.00 98 1020.5
20260906111721 18 84 4.8 4.8 0.00 0.00 0.00 97 1020.4
20260906111215 18 83 3.2 4.8 0.00 0.00 0.00 97 1020.3
20260906110711 18 94 3.2 3.2 0.00 0.00 0.00 97 1020.6
20260906110206 18 142 0.0 4.8 0.00 0.00 0.00 97 1020.5
20260906105659 18 170 0.0 4.8 0.00 0.00 0.00 97 1020.6
20260906105155 18 81 3.2 3.2 0.00 0.00 0.00 97 1020.8
20260906104655 18 132 1.6 3.2 0.00 0.00 0.00 97 1020.8
20260906104148 18 89 3.2 4.8 0.00 0.00 0.00 98 1020.6
20260906103647 18 115 0.0 3.2 0.00 0.00 0.00 98 1020.4
20260906103142 18 114 3.2 3.2 0.00 0.00 0.00 98 1020.2
20260906102637 18 143 1.6 3.2 0.00 0.00 0.00 98 1020.1
20260906102131 18 119 1.6 3.2 0.00 0.00 0.00 98 1020.1
20260906101626 18 110 4.8 4.8 0.00 0.00 0.00 98 1019.8
20260906101126 18 123 4.8 4.8 0.00 0.00 0.00 97 1019.8
20260906100622 18 116 4.8 4.8 0.00 0.00 0.00 97 1019.7
20260906100121 18 129 1.6 3.2 0.00 0.00 0.00 97 1019.9
20260906095616 18 158 1.6 1.6 0.00 0.00 0.00 97 1019.8
20260906095112 18 173 0.0 0.0 0.00 0.00 0.00 96 1019.9
20260906094610 18 174 0.0 0.0 0.00 0.00 0.00 96 1019.8
20260906094107 19 179 1.6 3.2 0.00 0.00 0.00 96 1019.9
20260906093603 19 179 1.6 1.6 0.00 0.00 0.00 96 1019.8
20260906093057 19 176 1.6 1.6 0.00 0.00 0.00 96 1019.7
20260906092552 19 148 0.0 3.2 0.00 0.00 0.00 96 1019.8
20260906092047 19 125 0.0 0.0 0.00 0.00 0.00 96 1019.8
20260906091543 19 173 0.0 0.0 0.00 0.00 0.00 96 1019.9
20260906091040 19 175 0.0 0.0 0.00 0.00 0.00 96 1019.8
20260906090539 19 161 0.0 1.6 0.00 0.00 0.00 96 1019.5
20260906090040 19 156 3.2 3.2 0.00 0.00 0.00 96 1019.3
20260906085539 19 142 3.2 3.2 0.00 0.00 0.00 96 1019.5
20260906085039 19 125 3.2 4.8 0.00 0.00 0.00 95 1019.4
20260906084533 19 176 4.8 12.9 0.00 0.00 0.00 95 1019.5
20260906084032 19 154 6.4 9.7 0.00 0.00 0.00 95 1019.4
20260906083528 19 135 4.8 8.0 0.00 0.00 0.00 95 1019.4
20260906083027 20 158 6.4 8.0 0.00 0.00 0.00 95 1019.3
20260906082522 20 177 3.2 4.8 0.00 0.00 0.00 95 1019.6
20260906082018 20 169 3.2 3.2 0.00 0.00 0.00 95 1019.7
20260906081514 20 165 1.6 4.8 0.00 0.00 0.00 95 1019.7
20260906081009 20 147 4.8 4.8 0.00 0.00 0.00 95 1019.3
20260906080506 20 141 3.2 4.8 0.00 0.00 0.00 95 1019.6
20260906080001 20 113 4.8 4.8 0.00 0.00 0.00 95 1019.6
20260906075455 20 140 3.2 8.0 0.00 0.00 0.00 95 1019.7
20260906074950 20 140 3.2 4.8 0.00 0.00 0.00 95 1019.6
20260906074445 20 65 6.4 9.7 0.00 0.00 0.00 95 1019.8
20260906073943 20 95 4.8 9.7 0.00 0.00 0.00 95 1019.5
20260906073438 20 82 6.4 9.7 0.00 0.00 0.00 94 1019.8
20260906072935 20 103 4.8 8.0 0.00 0.00 0.00 94 1019.7
20260906072430 20 124 4.8 8.0 0.00 0.00 0.00 94 1019.9
20260906071926 20 121 3.2 4.8 0.00 0.00 0.00 94 1019.8
20260906071421 20 161 4.8 8.0 0.00 0.00 0.00 94 1019.8
20260906070917 20 174 4.8 8.0 0.00 0.00 0.00 93 1019.7
20260906070413 20 174 4.8 4.8 0.00 0.00 0.00 93 1020.1
20260906065909 20 170 3.2 3.2 0.00 0.00 0.00 93 1020.0
20260906065403 20 177 3.2 3.2 0.00 0.00 0.00 93 1020.1
20260906064859 20 133 4.8 4.8 0.00 0.00 0.00 93 1020.0
20260906064355 20 119 1.6 4.8 0.00 0.00 0.00 93 1020.2
20260906063854 20 73 3.2 3.2 0.00 0.00 0.00 93 1020.0
20260906063350 20 105 1.6 3.2 0.00 0.00 0.00 93 1020.1
20260906062845 20 111 1.6 3.2 0.00 0.00 0.00 93 1020.0
20260906062344 20 128 1.6 3.2 0.00 0.00 0.00 93 1019.9
20260906061840 20 126 3.2 4.8 0.00 0.00 0.00 93 1020.1
20260906061336 20 133 3.2 4.8 0.00 0.00 0.00 93 1020.2
20260906060830 20 165 1.6 3.2 0.00 0.00 0.00 92 1020.0
20260906060329 20 151 1.6 3.2 0.00 0.00 0.00 92 1020.3
20260906055824 20 170 0.0 1.6 0.00 0.00 0.00 92 1020.4
20260906055320 20 134 1.6 3.2 0.00 0.00 0.00 92 1019.9
20260906054815 21 176 1.6 1.6 0.00 0.00 0.00 92 1020.0
20260906054310 21 120 1.6 1.6 0.00 0.00 0.00 91 1019.9
20260906053806 21 146 1.6 3.2 0.00 0.00 0.00 91 1020.2
20260906053301 21 171 1.6 3.2 0.00 0.00 0.00 90 1020.1
20260906052756 21 181 3.2 3.2 0.00 0.00 0.00 90 1020.1
20260906052253 21 187 1.6 4.8 0.00 0.00 0.00 90 1020.1
20260906051750 21 181 3.2 3.2 0.00 0.00 0.00 90 1020.0
20260906051249 21 166 1.6 3.2 0.00 0.00 0.00 90 1020.1
20260906050744 21 151 1.6 3.2 0.00 0.00 0.00 90 1019.9
20260906050239 21 124 3.2 4.8 0.00 0.00 0.00 90 1019.9
20260906045738 21 171 6.4 9.7 0.00 0.00 0.00 89 1019.8
20260906045233 21 143 4.8 9.7 0.00 0.00 0.00 89 1019.8
20260906044729 21 145 6.4 14.5 0.00 0.00 0.00 90 1019.9
20260906044224 21 184 1.6 1.6 0.00 0.00 0.00 90 1020.0
20260906043720 21 189 3.2 3.2 0.00 0.00 0.00 90 1019.8
20260906043216 21 170 3.2 3.2 0.00 0.00 0.00 90 1019.4
20260906042715 21 166 4.8 4.8 0.00 0.00 0.00 90 1019.5
20260906042214 21 171 3.2 8.0 0.00 0.00 0.00 90 1019.7
20260906041710 21 140 3.2 3.2 0.00 0.00 0.00 90 1019.8
20260906041205 21 181 6.4 9.7 0.00 0.00 0.00 90 1019.8
20260906040701 21 164 6.4 9.7 0.00 0.00 0.00 90 1019.7
20260906040156 21 174 4.8 12.9 0.00 0.00 0.00 90 1019.7
20260906035651 21 157 4.8 9.7 0.00 0.00 0.00 91 1019.5
20260906035147 21 167 4.8 8.0 0.00 0.00 0.00 91 1019.4
20260906034642 21 170 3.2 8.0 0.00 0.00 0.00 90 1018.9
20260906034142 21 176 6.4 8.0 0.00 0.00 0.00 90 1019.2
20260906033637 21 167 4.8 8.0 0.00 0.00 0.00 91 1019.3
20260906033132 21 172 3.2 3.2 0.00 0.00 0.00 90 1019.5
20260906032629 21 174 3.2 3.2 0.00 0.00 0.00 90 1019.4
20260906032128 21 185 0.0 1.6 0.00 0.00 0.00 90 1019.6
20260906031624 21 185 0.0 0.0 0.00 0.00 0.00 90 1019.6
20260906031119 21 185 0.0 0.0 0.00 0.00 0.00 89 1019.5
20260906030618 22 185 0.0 1.6 0.00 0.00 0.00 89 1019.3
20260906030114 22 184 1.6 1.6 0.00 0.00 0.00 88 1019.4
20260906025613 22 177 1.6 1.6 0.00 0.00 0.00 88 1019.2
20260906025112 22 167 0.0 0.0 0.00 0.00 0.00 88 1019.0
20260906024607 22 167 0.0 0.0 0.00 0.00 0.00 88 1019.0
20260906024101 22 166 0.0 3.2 0.00 0.00 0.00 88 1018.8
20260906023557 22 174 1.6 3.2 0.00 0.00 0.00 88 1018.9
20260906023051 22 172 1.6 3.2 0.00 0.00 0.00 88 1018.8
20260906022547 22 155 1.6 3.2 0.00 0.00 0.00 88 1018.6
20260906022043 22 147 1.6 3.2 0.00 0.00 0.00 87 1018.6
20260906021538 22 156 4.8 4.8 0.00 0.00 0.00 86 1018.6
20260906021037 22 173 1.6 9.7 0.00 0.00 0.00 86 1018.6
20260906020536 22 172 3.2 4.8 0.00 0.00 0.00 86 1018.3
20260906020031 22 175 4.8 8.0 0.00 0.00 0.00 86 1018.3
20260906015530 22 174 3.2 4.8 0.00 0.00 0.00 85 1018.4
20260906015030 23 201 0.0 1.6 0.00 0.00 0.00 85 1018.2
20260906014525 23 213 1.6 4.8 0.00 0.00 0.00 84 1017.9
20260906014021 23 193 1.6 3.2 0.00 0.00 0.00 83 1017.5
20260906013516 23 174 1.6 1.6 0.00 0.00 0.00 83 1017.6
20260906013011 23 173 3.2 4.8 0.00 0.00 0.00 82 1017.3
20260906012506 23 163 3.2 4.8 0.00 0.00 0.00 82 1017.3
20260906012005 23 175 4.8 8.0 0.00 0.00 0.00 81 1017.3
20260906011501 24 131 6.4 9.7 0.00 0.00 0.00 81 1017.3
20260906010950 24 137 4.8 8.0 0.00 0.00 0.00 80 1017.4
20260906010446 24 100 3.2 8.0 0.00 0.00 0.00 80 1017.3
20260906005943 24 129 3.2 8.0 0.00 0.00 0.00 79 1017.2
20260906005442 25 98 4.8 9.7 0.00 0.00 0.00 79 1017.2
20260906004940 25 149 4.8 4.8 0.00 0.00 0.00 78 1017.2
20260906004434 25 153 6.4 9.7 0.00 0.00 0.00 78 1017.4
20260906003930 25 108 8.0 11.3 0.00 0.00 0.00 77 1017.3
20260906003430 25 131 4.8 8.0 0.00 0.00 0.00 77 1017.2
20260906002926 25 103 6.4 8.0 0.00 0.00 0.00 76 1017.2
20260906002425 25 56 8.0 11.3 0.00 0.00 0.00 76 1017.2
20260906001920 25 69 4.8 9.7 0.00 0.00 0.00 76 1017.1
20260906001416 25 111 8.0 12.9 0.00 0.00 0.00 75 1017.3
20260906000911 26 67 6.4 12.9 0.00 0.00 0.00 74 1017.2
20260906000406 26 171 3.2 9.7 0.00 0.00 0.00 74 1017.2
20260905235901 26 86 6.4 9.7 0.00 0.00 0.00 74 1017.2
20260905235355 26 122 8.0 14.5 0.00 0.00 0.00 74 1017.2
20260905234850 26 98 11.3 14.5 0.00 0.00 0.00 73 1017.2
20260905234345 26 136 6.4 11.3 0.00 0.00 0.00 73 1017.2
20260905233840 26 131 4.8 9.7 0.00 0.00 0.00 73 1017.0
20260905233335 26 185 6.4 11.3 0.00 0.00 0.00 73 1017.1
20260905232835 27 115 8.0 9.7 0.00 0.00 0.00 72 1017.3
20260905232331 27 120 3.2 9.7 0.00 0.00 0.00 71 1017.2
20260905231827 27 64 8.0 14.5 0.00 0.00 0.00 70 1017.1
20260905231321 27 83 8.0 16.1 0.00 0.00 0.00 70 1017.0
20260905230818 27 32 12.9 16.1 0.00 0.00 0.00 70 1017.2
20260905230315 27 98 8.0 11.3 0.00 0.00 0.00 69 1016.9
20260905225815 27 105 8.0 11.3 0.00 0.00 0.00 69 1017.2
20260905225310 27 82 4.8 14.5 0.00 0.00 0.00 69 1017.6
20260905224810 27 54 6.4 12.9 0.00 0.00 0.00 69 1017.1
20260905224306 27 73 11.3 12.9 0.00 0.00 0.00 68 1017.3
20260905223801 27 111 6.4 12.9 0.00 0.00 0.00 68 1017.3
20260905223258 27 57 8.0 11.3 0.00 0.00 0.00 66 1017.3
20260905222753 27 141 8.0 11.3 0.00 0.00 0.00 68 1017.3
20260905222252 27 51 4.8 8.0 0.00 0.00 0.00 68 1017.4
20260905221748 27 21 1.6 3.2 0.00 0.00 0.00 68 1017.6
20260905221245 27 105 4.8 9.7 0.00 0.00 0.00 69 1017.2
20260905220740 27 109 3.2 4.8 0.00 0.00 0.00 68 1017.7
20260905220236 27 155 0.0 1.6 0.00 0.00 0.00 70 1017.6
20260905215736 27 281 6.4 8.0 0.00 0.00 0.00 73 1017.6
20260905215231 27 260 4.8 8.0 0.00 0.00 0.00 74 1017.5
20260905214727 27 190 0.0 1.6 0.00 0.00 0.00 74 1017.7
20260905214223 27 154 0.0 3.2 0.00 0.00 0.00 73 1017.9
20260905213718 27 170 3.2 3.2 0.00 0.00 0.00 72 1017.7
20260905213214 28 218 1.6 3.2 0.00 0.00 0.00 72 1018.1
20260905212709 27 210 4.8 4.8 0.00 0.00 0.00 70 1018.1
20260905212208 27 305 0.0 8.0 0.00 0.00 0.00 70 1018.0
20260905211703 27 258 0.0 1.6 0.00 0.00 0.00 69 1017.9
20260905211158 27 16 3.2 4.8 0.00 0.00 0.00 69 1018.1
20260905210655 27 336 3.2 9.7 0.00 0.00 0.00 72 1018.1
20260905210154 27 343 0.0 0.0 0.00 0.00 0.00 71 1017.9
20260905205653 27 162 1.6 4.8 0.00 0.00 0.00 71 1018.1
20260905205153 27 248 4.8 8.0 0.00 0.00 0.00 72 1018.2
20260905204653 27 250 4.8 4.8 0.00 0.00 0.00 73 1018.2
20260905204148 26 299 6.4 8.0 0.00 0.00 0.00 74 1018.2
20260905203643 26 29 1.6 4.8 0.00 0.00 0.00 75 1018.1
20260905203138 27 270 4.8 4.8 0.00 0.00 0.00 73 1018.4
20260905202634 26 216 0.0 1.6 0.00 0.00 0.00 74 1018.2
20260905202129 27 207 1.6 8.0 0.00 0.00 0.00 74 1018.5
20260905201625 26 231 4.8 4.8 0.00 0.00 0.00 75 1018.5
20260905201124 25 283 6.4 11.3 0.00 0.00 0.00 78 1018.4
20260905200620 26 277 11.3 11.3 0.00 0.00 0.00 77 1018.3
20260905200115 26 247 4.8 11.3 0.00 0.00 0.00 76 1018.8
20260905195613 26 226 0.0 3.2 0.00 0.00 0.00 73 1018.6
20260905195109 26 223 4.8 8.0 0.00 0.00 0.00 73 1018.5
20260905194609 26 243 8.0 9.7 0.00 0.00 0.00 74 1018.5
20260905194108 27 275 4.8 8.0 0.00 0.00 0.00 72 1018.6
20260905193603 27 300 6.4 8.0 0.00 0.00 0.00 73 1018.3
20260905193058 26 203 3.2 4.8 0.00 0.00 0.00 74 1018.5
20260905192553 26 263 4.8 9.7 0.00 0.00 0.00 74 1018.8
20260905192050 26 227 1.6 3.2 0.00 0.00 0.00 75 1018.5
20260905191548 26 243 3.2 3.2 0.00 0.00 0.00 76 1018.3
20260905191048 25 209 1.6 1.6 0.00 0.00 0.00 77 1018.7
20260905190546 26 161 1.6 4.8 0.00 0.00 0.00 77 1018.6
20260905190040 26 92 0.0 3.2 0.00 0.00 0.00 77 1018.5
20260905185539 25 135 0.0 3.2 0.00 0.00 0.00 77 1018.5
20260905185038 25 166 0.0 1.6 0.00 0.00 0.00 78 1018.6
20260905184533 25 118 3.2 4.8 0.00 0.00 0.00 78 1018.7
20260905184032 26 38 4.8 8.0 0.00 0.00 0.00 77 1018.7
20260905183532 26 161 0.0 3.2 0.00 0.00 0.00 73 1018.6
20260905183027 25 20 1.6 3.2 0.00 0.00 0.00 77 1018.8
20260905182526 25 359 4.8 8.0 0.00 0.00 0.00 77 1018.4
20260905182021 25 172 0.0 4.8 0.00 0.00 0.00 78 1018.8
20260905181516 25 285 0.0 3.2 0.00 0.00 0.00 78 1018.9
20260905181015 25 142 0.0 3.2 0.00 0.00 0.00 79 1019.0
20260905180510 25 343 4.8 4.8 0.00 0.00 0.00 79 1019.0
20260905180006 25 51 0.0 4.8 0.00 0.00 0.00 80 1018.9
20260905175504 25 321 4.8 9.7 0.00 0.00 0.00 80 1019.0
20260905175000 25 53 4.8 11.3 0.00 0.00 0.00 81 1019.0
20260905174455 25 18 3.2 3.2 0.00 0.00 0.00 80 1019.0
20260905173951 25 212 1.6 4.8 0.00 0.00 0.00 80 1018.9
20260905173447 25 136 4.8 4.8 0.00 0.00 0.00 81 1019.1
20260905172942 24 143 6.4 9.7 0.00 0.00 0.00 83 1019.4
20260905172440 24 133 4.8 4.8 0.00 0.00 0.00 83 1019.1
20260905171936 24 105 8.0 9.7 0.00 0.00 0.00 83 1019.1
20260905171433 23 169 9.7 11.3 0.00 0.00 0.00 83 1019.4
20260905170929 23 142 1.6 9.7 0.00 0.00 0.00 84 1019.2
20260905170425 23 182 6.4 8.0 0.00 0.00 0.00 85 1018.9
20260905165924 23 88 3.2 4.8 0.00 0.00 0.00 86 1019.2
20260905165419 23 159 4.8 9.7 0.00 0.00 0.00 87 1019.4
20260905164914 23 151 4.8 8.0 0.00 0.00 0.00 87 1019.5
20260905164408 23 172 1.6 4.8 0.00 0.00 0.00 88 1019.2
20260905163904 23 168 1.6 1.6 0.00 0.00 0.00 88 1019.4
20260905163401 22 174 1.6 4.8 0.00 0.00 0.00 88 1019.2
20260905162856 22 161 3.2 4.8 0.00 0.00 0.00 88 1019.6
20260905162350 22 144 1.6 4.8 0.00 0.00 0.00 88 1019.3
20260905161845 22 142 1.6 4.8 0.00 0.00 0.00 88 1019.5
20260905161344 22 115 3.2 8.0 0.00 0.00 0.00 88 1019.3
20260905160843 22 173 4.8 8.0 0.00 0.00 0.00 88 1019.3
20260905160337 22 135 6.4 9.7 0.00 0.00 0.00 88 1019.4
20260905155831 22 127 1.6 3.2 0.00 0.00 0.00 89 1019.3
20260905155325 22 197 6.4 9.7 0.00 0.00 0.00 89 1019.0
20260905154825 22 138 3.2 4.8 0.00 0.00 0.00 89 1019.4
20260905154320 22 149 3.2 3.2 0.00 0.00 0.00 89 1019.4
20260905153816 22 140 0.0 3.2 0.00 0.00 0.00 89 1019.3
20260905153312 22 102 8.0 9.7 0.00 0.00 0.00 90 1019.2
20260905152812 22 105 6.4 12.9 0.00 0.00 0.00 90 1019.1
20260905152311 22 98 4.8 4.8 0.00 0.00 0.00 91 1019.2
20260905151806 22 68 4.8 8.0 0.00 0.00 0.00 91 1019.1
20260905151302 22 45 8.0 11.3 0.00 0.00 0.00 91 1019.0